Location: Bella Vista
(10.4891°N, 66.9586°W)
Time: 18:42:27
(UTC+00:00)

Daily predictions for brighter satellites

Satellite Brightness Start Highest point End
(mag) Time Altitude Azimuth Time Altitude Azimuth Time Altitude Azimuth
CZ-4B R/B 4.1 22:48:30 10° S 22:54:01 57° WSW 22:59:30 10° NNW
SeaSat 1 2.5 22:50:35 10° NNE 22:55:27 62° ESE 23:00:18 10° SSW
ARGOS 4.4 22:54:58 10° ESE 22:58:46 20° ENE 23:02:34 10° NNE
CZ-4B R/B 4.4 22:56:35 10° NNW 22:58:56 19° WNW 23:01:21 10° SW
Cosmos 1689 Rocket 1.9 22:58:25 10° N 23:01:16 89° E 23:04:09 10° S
Cosmos 1238 Rocket 4.2 22:58:42 10° SSE 23:03:00 26° E 23:06:42 10° NE
Cosmos 2219 Rocket 3.7 22:59:45 10° SW 23:04:57 41° WNW 23:10:10 10° N
Cosmos 968 Rocket 3.7 23:00:22 10° NNW 23:05:37 81° WSW 23:10:50 10° S
Cosmos 1515 3.9 23:02:12 10° N 23:05:58 76° W 23:09:44 10° S
USA 238 DEB 4.0 22:59:56 10° SSW 23:06:21 69° WNW 23:12:50 10° NNE
USA 238 3.9 23:00:03 10° SSW 23:06:27 70° WNW 23:12:57 10° NNE
ERS-2 2.4 23:04:34 10° N 23:08:11 73° WNW 23:11:49 10° SSW
ATLAS 3B R/B 4.3 23:10:27 10° ESE 23:11:33 10° ESE 23:12:38 10° E
Cosmos 1980 3.8 23:07:52 10° S 23:13:22 54° ESE 23:18:50 10° NNE
Meteor 2-4 Rocket 4.0 23:09:38 10° N 23:15:20 49° E 23:20:59 10° SSE
Cosmos 1743 4.1 23:12:54 10° SE 23:15:34 18° E 23:18:16 10° NE
Cosmos 1666 3.8 23:13:10 10° SSW 23:16:45 47° W 23:20:19 10° N
GOES 2 Rocket 4.0 23:13:20 10° SSW 23:17:06 29° SSE 23:19:51 15° E
COSMOS 2428 4.4 23:15:28 10° SW 23:20:36 36° WNW 23:25:45 10° N
USA 234 3.7 23:15:00 10° NNE 23:21:25 63° NW 23:27:52 10° SW
FALCON 9 R/B 4.3 23:17:41 10° S 23:23:23 31° ESE 23:35:14 15° ENE
Nadezhda 3 Rocket 4.4 23:19:46 10° N 23:26:05 72° W 23:32:22 10° S
CZ-2C R/B 2.9 23:24:37 10° N 23:29:52 72° WNW 23:35:02 10° SSW
Centaur AC-119 2.4 23:29:26 10° W 23:31:10 30° NNW 23:32:21 19° NNE
Okean-O 2.6 23:27:08 10° SSE 23:31:29 61° ENE 23:35:50 10° N
X-37B 3.3 23:29:47 10° W 23:31:58 17° NW 23:34:09 10° N
ASTRO E2 4.3 23:32:04 10° S 23:34:51 18° SE 23:35:32 18° SE
EPKM 4.3 23:23:56 10° WNW 23:35:57 38° N 23:38:03 22° ENE
Cosmos 44 Rocket 3.9 23:33:39 10° NNW 23:38:42 61° WSW 23:43:37 10° S
SME Rocket 3.1 23:34:43 10° NNE 23:39:02 49° E 23:42:40 10° S
CSL-04 Rocket 4.1 23:34:48 10° SE 23:39:58 41° ENE 23:45:06 10° N
Stardust Del rocket 2.3 23:38:05 10° WNW 23:40:27 48° NNE 23:40:27 48° NNE
H-2A R/B 2.3 23:38:41 10° S 23:44:05 76° W 23:49:31 10° NNW
Cosmos 1703 Rocket 3.4 23:40:27 10° N 23:44:46 89° E 23:49:05 10° S
CENTAUR R/B 3.8 23:41:51 10° SW 23:46:29 33° WNW 23:51:37 10° N
CSL-04 Debris 4.2 23:42:35 10° SSE 23:47:51 55° ENE 23:53:09 10° N
Cosmos 1544 2.8 23:47:25 10° S 23:51:01 80° E 23:54:38 10° N
YAOGAN 1 3.1 23:46:54 10° S 23:51:08 61° WSW 23:55:24 10° NNW
Cosmos 1763 Rocket 3.4 23:46:31 10° S 23:51:47 80° ESE 23:57:05 10° NNE
